Regional Weather Roundup
Issued by NWS

Home | Current Version | Previous Version | Text Only | Print | Product List | Glossary On
Versions: 1 2 3 4 5 6 7 8 9 10 11 12 13 14 15 16 17 18 19 20 21 22 23 24 25 26 27 28 29 30 31 32 33 34 35 36 37 38 39 40 41 42 43 44 45 46 47 48 49 50
649
ASUS45 KPSR 110210
RWRAZ

ARIZONA HOURLY REGIONAL WEATHER ROUNDUP
NATIONAL WEATHER SERVICE PHOENIX AZ
700 PM MST WED FEB 10 2016

NOTE: FAIR INDICATES FEW OR NO CLOUDS BELOW 12,000 FEET WITH NO
SIGNIFICANT WEATHER AND/OR OBSTRUCTIONS TO VISIBILITY.

AZZ001>003-036-110300-
NORTHWEST ARIZONA

CITY           SKY/WX    TMP DP  RH WIND       PRES   REMARKS
BULLHEAD CITY  CLEAR     72  27  18 N10       30.17R
KINGMAN        CLEAR     52  32  46 SE9       30.26R
$$

AZZ004>008-015-016-018-110300-
NORTH CENTRAL ARIZONA

CITY           SKY/WX    TMP DP  RH WIND       PRES   REMARKS
GRAND CANYON   CLEAR     36  18  48 NE3       30.39R
WILLIAMS       PTCLDY    41  23  48 S9        30.44R
PRESCOTT       MOCLDY    51  20  29 S7        30.29S
FLAGSTAFF      PTCLDY    40  20  44 CALM      30.40R
PAYSON         MOCLDY    55  25  30 CALM      30.31S
PAGE           CLEAR     48  29  47 SW5       30.33R
$$

AZZ009>014-017-110300-
NORTHEAST ARIZONA

CITY           SKY/WX    TMP DP  RH WIND       PRES   REMARKS
WINSLOW        MOCLDY    42  19  39 SW7       30.32S
SAINT JOHNS    MOCLDY    38  16  40 W3        30.33F
WINDOW ROCK    MOCLDY    40   0  18 CALM      30.37S
SHOW LOW       MOCLDY    39  21  48 CALM      30.38S
$$

AZZ023-110300-
GREATER PHOENIX AREA

CITY           SKY/WX    TMP DP  RH WIND       PRES   REMARKS
PHOENIX        MOCLDY    80  24  12 NW6       30.09S
BUCKEYE        CLOUDY    66  32  28 CALM      30.13S
GLENDALE       MOCLDY    75  30  19 VRB5      30.12S
LUKE AFB       MOCLDY    70  31  24 W6        30.10S
DEER VALLEY    MOCLDY    73  26  17 CALM      30.12R
SCOTTSDALE     MOCLDY    75  24  15 N3        30.13S
MESA-FALCON      N/A    N/A N/A N/A VRB5      30.12R
MESA-GATEWAY   PTCLDY    72  32  23 NW6       30.12S
CHANDLER       MOCLDY    73  28  19 VRB5      30.11S
$$

AZZ027-028-110300-
SOUTHWEST MARICOPA COUNTY AND PINAL COUNTY

CITY           SKY/WX    TMP DP  RH WIND       PRES   REMARKS
CASA GRANDE    MOCLDY    70  28  21 NW8       30.12S
GILA BEND      FAIR      70  31  23 NE2       30.09R
$$

AZZ503-504-507>509-110300-
SOUTHEAST ARIZONA

CITY           SKY/WX    TMP DP  RH WIND       PRES   REMARKS
TUCSON         PTCLDY    73  14  10 N3        30.17S
DAVIS-MONTHAN  PTCLDY    69  21  16 NW6       30.15S
RYAN FIELD     CLEAR     72  25  17 NW6       30.16S
NOGALES        CLEAR     60  16  18 E8        30.21S
SIERRA VISTA   PTCLDY    56  19  24 CALM      30.27S
DOUGLAS        CLEAR     53  10  18 NE7       30.25R
SAFFORD        PTCLDY    57  21  24 CALM      30.20S
$$

AZZ020-021-025-026-031-110300-
SOUTHWEST ARIZONA

CITY           SKY/WX    TMP DP  RH WIND       PRES   REMARKS
YUMA           MOCLDY    77  28  16 N7        30.09R
$$

CAZ031-033-041-043-047-048-061-110300-
SOUTHERN CALIFORNIA

CITY           SKY/WX    TMP DP  RH WIND       PRES   REMARKS
DOWNTOWN L.A.  CLEAR     70  38  31 VRB3      30.08R
L.A. AIRPORT   PTCLDY    67  42  40 W7        30.08S
SAN DIEGO      PTCLDY    74  27  17 NW3       30.09R
BURBANK        CLEAR     79  26  14 CALM      30.09R
ONTARIO        PTCLDY    77  34  21 W6        30.09R
RIVERSIDE      CLEAR     80  33  18 NW3       30.09R
PALM SPRINGS   PTCLDY    79  29  16 CALM      30.13R
EL CENTRO NAS  MOCLDY    75  30  19 CALM      30.10S
IMPERIAL       MOCLDY    73  35  25 CALM      30.08S
BLYTHE         PTCLDY    71  31  22 N5        30.11S
NEEDLES        CLEAR     69  25  19 NW8       30.16S
$$

NVZ020-UTZ003-110300-
SOUTHERN NEVADA-UTAH

CITY           SKY/WX    TMP DP  RH WIND       PRES   REMARKS
LAS VEGAS      PTCLDY    67  22  18 CALM      30.19R
SALT LAKE CITY CLOUDY    30  27  88 N6        30.47R FOG     WCI  24
$$

NMZ009-TXZ055-110300-
NEW MEXICO-WEST TEXAS

CITY           SKY/WX    TMP DP  RH WIND       PRES   REMARKS
ALBUQUERQUE    PTCLDY    52  15  23 CALM      30.30R
EL PASO        CLEAR     60  15  17 CALM      30.24S
$$


........................KEY........................
SKY/WX - SKY CONDITION/WEATHER
TMP    - TEMPERATURE IN FAHRENHEIT
DP     - DEW POINT IN FAHRENHEIT
RH     - RELATIVE HUMIDITY IN PERCENT
WIND   - DIRECTION AND SPEED IN MILES PER HOUR (MPH)
VRB    - VARIABLE WIND DIRECTION
PRES   - MEAN SEA LEVEL PRESSURE IN INCHES OF MERCURY
         F - FALLING PRESSURE   R - RISING PRESSURE
         S - STEADY PRESSURE
VSB    - VISIBILITY IN MILES
HX     - HEAT INDEX IN FAHRENHEIT
WCI    - WIND CHILL INDEX IN FAHRENHEIT
TC     - TEMPERATURE IN CELSIUS WHICH IS ALSO KNOWN AS
         TEMPERATURE IN CENTIGRADE
AFB    - AIR FORCE BASE
         LUKE AFB IS LUKE AIR FORCE BASE
         DAVIS-MONTHAN IS DAVIS-MONTHAN AIR FORCE BASE
NAS    - NAVAL AIR STATION
         EL CENTRO NAS IS EL CENTRO NAVAL AIR STATION
N/A    - NOT AVAILABLE





USA.gov is the U.S. government's official web portal to all federal, state and local government web resources and services.